EW8204 Weather Reports


Display with metric or nautical units.
time (UTC)temp
F
wind
direction
speed
MPH
gust
MPH
rain 1hr
in
rain 24hr
in
rain mn
in
humidity
%
barometer
mb
20260901230045 67 333 1.0 4.0 0.00 0.00 0.00 41 1012.5
20260901224543 69 310 1.0 6.0 0.00 0.00 0.00 39 1012.3
20260901223043 69 107 2.0 7.0 0.00 0.00 0.00 38 1012.2
20260901221540 69 328 0.0 11.0 0.00 0.00 0.00 39 1012.3
20260901220042 68 327 1.0 7.0 0.00 0.00 0.00 41 1012.4
20260901214542 68 345 4.0 11.0 0.00 0.00 0.00 41 1012.4
20260901213052 68 345 4.0 8.0 0.00 0.00 0.00 40 1012.5
20260901211538 69 203 1.0 8.0 0.00 0.00 0.00 40 1012.4
20260901210038 70 330 3.0 11.0 0.00 0.00 0.00 39 1012.5
20260901204535 71 26 0.0 6.0 0.00 0.00 0.00 38 1012.3
20260901203051 71 59 1.0 7.0 0.00 0.00 0.00 36 1012.4
20260901201533 71 91 2.0 8.0 0.00 0.00 0.00 36 1012.5
20260901200038 70 89 4.0 12.0 0.00 0.00 0.00 38 1012.4
20260901194533 71 131 1.0 9.0 0.00 0.00 0.00 38 1012.6
20260901193030 71 235 0.0 8.0 0.00 0.00 0.00 36 1012.7
20260901191528 71 328 2.0 9.0 0.00 0.00 0.00 33 1012.6
20260901190031 72 109 2.0 6.0 0.00 0.00 0.00 34 1012.7
20260901184525 71 32 0.0 4.0 0.00 0.00 0.00 43 1012.8
20260901183019 68 78 1.0 5.0 0.00 0.00 0.00 50 1012.7
20260901181617 66 335 1.0 4.0 0.00 0.00 0.00 56 1012.7
20260901180016 64 323 1.0 6.0 0.00 0.00 0.00 57 1012.8
20260901174513 65 66 2.0 6.0 0.00 0.00 0.00 55 1012.5
20260901173010 66 83 1.0 4.0 0.00 0.00 0.00 52 1012.3
20260901171505 65 101 1.0 3.0 0.00 0.00 0.00 54 1012.2
20260901170003 63 311 1.0 5.0 0.00 0.00 0.00 57 1012.1
20260901164503 64 302 0.0 4.0 0.00 0.00 0.00 53 1012.2
20260901163102 63 114 1.0 4.0 0.00 0.00 0.00 54 1012.0
20260901161555 62 103 0.0 4.0 0.00 0.00 0.00 58 1011.7
20260901160056 62 103 0.0 1.0 0.00 0.00 0.00 62 1011.7
20260901154550 58 111 0.0 1.0 0.00 0.00 0.00 69 1011.7
20260901153047 56 307 0.0 0.0 0.00 0.00 0.00 70 1011.5
20260901151536 53 307 0.0 0.0 0.00 0.00 0.00 77 1011.3
20260901150032 48 307 0.0 0.0 0.00 0.00 0.00 83 1011.3
20260901144531 45 307 0.0 0.0 0.00 0.00 0.00 84 1011.1
20260901143029 43 307 0.0 0.0 0.00 0.00 0.00 85 1011.1
20260901141527 43 307 0.0 0.0 0.00 0.00 0.00 85 1011.0
20260901140025 42 307 0.0 0.0 0.00 0.00 0.00 85 1010.8
20260901134522 43 307 0.0 0.0 0.00 0.00 0.00 84 1010.8
20260901133020 43 307 0.0 0.0 0.00 0.00 0.00 84 1010.7
20260901131517 43 307 0.0 0.0 0.00 0.00 0.00 84 1010.6
20260901130016 44 307 0.0 0.0 0.00 0.00 0.00 84 1010.4
20260901124517 44 307 0.0 0.0 0.00 0.00 0.00 84 1010.4
20260901123021 44 307 0.0 0.0 0.00 0.00 0.00 84 1010.1
20260901121511 44 307 0.0 0.0 0.00 0.00 0.00 84 1010.1
20260901120013 44 307 0.0 0.0 0.00 0.00 0.00 84 1010.0
20260901114509 44 307 0.0 0.0 0.00 0.00 0.00 84 1010.1
20260901113007 45 307 0.0 0.0 0.00 0.00 0.00 84 1010.0
20260901111505 45 307 0.0 0.0 0.00 0.00 0.00 83 1010.0
20260901110003 45 307 0.0 0.0 0.00 0.00 0.00 83 1009.8
20260901104501 45 307 0.0 0.0 0.00 0.00 0.00 83 1010.0
20260901103059 46 307 0.0 0.0 0.00 0.00 0.00 83 1010.0
20260901101609 46 307 0.0 0.0 0.00 0.00 0.00 82 1010.1
20260901100052 47 307 0.0 0.0 0.00 0.00 0.00 82 1010.1
20260901094552 47 307 0.0 0.0 0.00 0.00 0.00 81 1010.1
20260901093050 47 307 0.0 0.0 0.00 0.00 0.00 81 1010.2
20260901091546 48 307 0.0 0.0 0.00 0.00 0.00 81 1010.2
20260901090043 48 307 0.0 0.0 0.00 0.00 0.00 80 1010.5
20260901084540 48 307 0.0 0.0 0.00 0.00 0.00 80 1010.4
20260901083039 48 307 0.0 0.0 0.00 0.00 0.00 80 1010.6
20260901081540 49 307 0.0 0.0 0.00 0.00 0.00 79 1010.5
20260901080041 49 307 0.0 0.0 0.00 0.00 0.00 79 1010.3
20260901074543 49 307 0.0 0.0 0.00 0.00 0.00 78 1010.3
20260901073037 50 307 0.0 0.0 0.00 0.00 0.00 78 1010.4
20260901071529 50 307 0.0 0.0 0.00 0.00 0.00 78 1010.2
20260901070028 50 307 0.0 0.0 0.00 0.00 0.00 78 1010.1
20260901064525 50 307 0.0 0.0 0.00 0.00 0.00 78 1010.1
20260901063024 50 307 0.0 0.0 0.00 0.00 0.00 78 1010.0
20260901061524 50 307 0.0 0.0 0.00 0.00 0.00 77 1009.9
20260901060021 51 307 0.0 0.0 0.00 0.00 0.00 77 1009.9
20260901054522 51 307 0.0 0.0 0.00 0.00 0.00 76 1009.9
20260901053021 52 307 0.0 0.0 0.00 0.00 0.00 75 1010.1
20260901051529 53 307 0.0 0.0 0.00 0.00 0.00 75 1010.1
20260901050020 53 307 0.0 0.0 0.00 0.00 0.00 73 1010.0
20260901044522 54 307 0.0 0.0 0.00 0.00 0.00 71 1010.0
20260901043018 55 307 0.0 0.0 0.00 0.00 0.00 69 1009.9
20260901041541 56 307 0.0 0.0 0.00 0.00 0.00 67 1009.7
20260901040019 57 307 0.0 0.0 0.00 0.00 0.00 66 1009.6
20260901034514 58 307 0.0 0.0 0.00 0.00 0.00 64 1009.5
20260901033016 59 307 0.0 0.0 0.00 0.00 0.00 61 1009.3
20260901031514 60 307 0.0 0.0 0.00 0.00 0.00 59 1009.1
20260901030015 62 307 0.0 0.0 0.00 0.00 0.00 56 1009.0
20260901024512 64 307 0.0 0.0 0.00 0.00 0.00 52 1008.9
20260901023014 66 307 0.0 0.0 0.00 0.00 0.00 48 1008.8
20260901021516 68 307 0.0 0.0 0.00 0.00 0.00 45 1008.8
20260901020009 70 307 0.0 0.0 0.00 0.00 0.00 43 1008.8
20260901014522 71 307 0.0 4.0 0.00 0.00 0.00 40 1008.8
20260901013008 72 153 0.0 2.0 0.00 0.00 0.00 37 1008.9
20260901011507 73 352 1.0 6.0 0.00 0.00 0.00 32 1008.9
20260901010006 74 130 0.0 4.0 0.00 0.00 0.00 32 1008.8
20260901004504 75 85 0.0 3.0 0.00 0.00 0.00 32 1008.7
20260901003005 75 84 0.0 2.0 0.00 0.00 0.00 32 1008.8
20260901001501 76 63 0.0 3.0 0.00 0.00 0.00 30 1009.0
20260901000110 76 346 1.0 5.0 0.00 0.00 0.00 30 1009.0
20260831234621 76 320 2.0 8.0 0.00 0.00 0.00 30 1009.1
20260831233118 76 122 0.0 5.0 0.00 0.00 0.00 30 1009.1
20260831231556 77 335 2.0 9.0 0.00 0.00 0.00 29 1009.1